STARLINK-37182, 68348

Orbit data source: Space-Track

STARLINK-37182, 68348 is a payload satellite owned by SpaceX/Seattle (US) in LEO that was launched on Sun, 22 Mar 2026 UTC via an FALCON 9 launch vehicle from the Air Force Eastern Test Range (AFETR). Payload-class satellites include a variety of spacecraft equipped with specific instruments for various scientific and technological missions. These include communications satellites like Starlink; space stations such as the ISS; scientific satellites like the Hubble; Earth observation satellites from companies like Planet Labs, Umbra, and HawkEye 360; GPS; miniature CubeSats for education and research; and military/defense satellites.

Loading next visibility...
Identifier
68348, 2026-059AD
Orbit
LEO
Country
Flag of USUS
Related business
Manufacturer
SpaceX/Seattle
Mission
Operational spacecraft
Bus & Motor
STARLINK V2MO, Unknown motor
Mass
575 kg wet, ~530 kg dry
Launch date (UTC)
2026-03-22 (3 months ago)
Launch vehicle
FALCON 9
Launch site
Air Force Eastern Test Range (AFETR)
Object type
Payload
Rocket body
Debris
Shape & HBR
Unknown shape, 17.7 m
Radar Cross Section
Large (>1 m²)

Expand to show TLE details & history
Last TLE update: 10 hours ago

TLE from 10 hours ago
0 STARLINK-37182
1 68348U 26059AD  26171.42912663  .00016272  00000-0  49158-3 0  9999
2 68348  53.1554 226.1944 0000814  53.4265 306.6812 15.34406359 13976
Epoch: 2026-06-20T10:17Z
TLE epoch observation values (Epoch: 2026-06-20T10:17:56.540Z)
Latitude
-0.00007°
Longitude
163.06489°
Altitude
463.253 km
Speed
7.636 km/s
True Right ascension
15h 04m 46s
True Declination
0° 00' 00"
Sunlit
Object was in full shadow at epoch
Visualization orbit readout
Latitude
Unknown
Longitude
Unknown
Altitude
Unknown
Speed
Unknown
Apparent Right ascension
Unknown
Apparent Declination
Unknown
Sunlit
N/A
Visualization observer readout
Local Sidereal Time
07:12:15
Azimuth
Unknown
Elevation
Unknown
Doppler factor
Unknown
Orbital elements
Apogee altitude
463.499 km
Perigee altitude
462.385 km
Semi-major axis
6,841.079 km
Eccentricity
0.00008
Inclination
53.1554°
RAAN
226.1944°
Arg. of periapsis
53.4265°
True anomaly
306.67372°
Mean anomaly
306.6812°
Eccentric anomaly
306.67746°
Mean motion
3.8358 °/min
Orbital period
93.85 mins
BSTAR
0.00049158
Loading maneuver chart data...
Computing Atmospheric mass density...
Loading historical data...
Loading historical data...
Loading historical data...
Loading historical data...
Loading historical data...
Loading historical data...
Loading historical data...

Documentation

Showing up to 5 results
|